Location: Crescent
(42.8242°N, 73.7329°W)
Time: 08:04:38
(UTC+00:00)

Vanguard 1 - Pass Details

Date: 22 February 2026
Orbit: 653 x 3818 km, 34.2° (Epoch: 12 March)

Event Time Altitude Azimuth Distance (km) Brightness Sun altitude
Rises 20:56:39 0° 256° (WSW) 4,528 15.0 16.0°
Reaches altitude 10° 20:59:08 10° 252° (WSW) 3,849 15.2 15.6°
Maximum altitude 21:09:41 61° 175° (S) 2,663 12.7 13.9°
Drops below altitude 10° 21:28:40 10° 102° (ESE) 6,533 13.8 10.8°
Sets 21:34:27 0° 100° (E) 7,801 14.1 9.8°
